Location: American Medical Response
(33.3472°N, 96.5511°W)
Time: 19:41:02
(UTC+00:00)

Lacrosse 5 rocket - Pass Details

Date: 03 July 2022
Orbit: 456 x 628 km, 57.0° (Epoch: 08 August)

Event Time Altitude Azimuth Distance (km) Brightness Sun altitude
Rises 04:40:28 0° 302° (WNW) 2,645 5.7 -27.9°
Reaches altitude 10° 04:43:09 10° 283° (WNW) 1,789 4.4 -28.2°
Enters shadow 04:44:23 15° 267° (W) 1,514 3.8 -28.3°
